STARLINK-11259 [DTC]

Last updated on Sat Sep 28 2024 00:02:03 GMT+0000 (Coordinated Universal Time)

1 60721U 24152B 24271.18399688 -.00001121 00000+0 -43958-5 0 9998 2 60721 53.1601 201.8589 0001038 91.0318 269.0819 15.69721229 5825

Satellite not in orbit

STARLINK-11259 [DTC]